Carbondale, IL

7:08 PM CST on November 11, 2019 (GMT -0600)
Southern Illinois

Weather History for KMDH - October, 2019

Change the Weather History Date:

Monday, October 21, 2019

  Actual Average Record
Temperature  
Mean Temperature 60 °F -  
Max Temperature 70 °F 66 °F 89 °F (1963)
Min Temperature 51 °F 39 °F 18 °F (1952)
Degree Days  
Heating Degree Days 4    
Growing Degree Days 10 (Base 50)    
Moisture  
Dew Point 58 °F    
Average Humidity 83    
Maximum Humidity 97    
Minimum Humidity 57    
Precipitation  
Precipitation 1.44 in - - ()
Sea Level Pressure  
Sea Level Pressure 29.65 in    
Wind  
Wind Speed 11 mph (South)    
Max Wind Speed 22 mph    
Max Gust Speed 34 mph    
Visibility 7 miles    
Events Rain , Thunderstorm    
Averages and records for this station are not official NWS values.
T = Trace of Precipitation, MM = Missing Value Source: NWS Daily Summary

Daily Weather History Graph

Daily Weather History Graph

Search for Another Location

Airport or City:

Astronomy

Oct. 21, 2019 Rise Set
Actual Time 7:10 AM CDT 6:11 PM CDT
Civil Twilight 6:44 AM CDT 6:38 PM CDT
Nautical Twilight 6:13 AM CDT 7:08 PM CDT
Astronomical Twilight 5:43 AM CDT 7:39 PM CDT
Moon No Moon Rise 2:25 PM CDT (10/21)
Length of Visible Light 11h 54m
Length of Day
11h 00m
Waning Gibbous, 48% of the Moon is Illuminated
Oct 21
Waning Gibbous
Oct 27
New
Nov 4
First Quarter
Nov 12
Full
Nov 19
Last Quarter

Hourly Weather History & Observations

Time (CDT) Temp. Dew Point Humidity Pressure Visibility Wind Dir Wind Speed Gust Speed Precip Events Conditions
12:52 AM 60.1 °F 54.0 °F 80% 29.74 in 10.0 mi ESE 4.6 mph - N/A   Clear
1:52 AM 63.0 °F 55.9 °F 78% 29.72 in 10.0 mi SE 8.1 mph - N/A   Clear
2:52 AM 64.0 °F 57.0 °F 78% 29.65 in 10.0 mi SE 10.4 mph - N/A   Clear
3:28 AM 64.9 °F 57.9 °F 78% 29.63 in 9.0 mi SE 9.2 mph 20.7 mph 0.00 in Rain , Thunderstorm Light Rain
3:39 AM 64.0 °F 59.0 °F 84% 29.62 in 2.5 mi SE 11.5 mph - 0.14 in Rain , Thunderstorm Thunderstorms and Rain
3:47 AM 62.6 °F 60.8 °F 94% 29.64 in 1.5 mi South 8.1 mph - 0.27 in Rain , Thunderstorm Heavy Thunderstorms and Rain
3:50 AM 62.6 °F 60.8 °F 94% 29.63 in 3.0 mi South 6.9 mph - 0.27 in Rain , Thunderstorm Light Thunderstorms and Rain
3:52 AM 63.0 °F 60.1 °F 90% 29.62 in 5.0 mi South 6.9 mph - 0.27 in Rain , Thunderstorm Light Thunderstorms and Rain
4:09 AM 63.0 °F 60.1 °F 90% 29.62 in 10.0 mi SSE 9.2 mph - 0.00 in Rain , Thunderstorm Light Rain
4:36 AM 64.0 °F 60.1 °F 87% 29.62 in 7.0 mi SSE 11.5 mph - 0.02 in Rain , Thunderstorm Light Thunderstorms and Rain
4:43 AM 64.0 °F 61.0 °F 90% 29.65 in 1.8 mi South 16.1 mph 20.7 mph 0.19 in Rain , Thunderstorm Heavy Thunderstorms and Rain
4:52 AM 63.0 °F 61.0 °F 93% 29.61 in 1.8 mi SSE 15.0 mph 20.7 mph 0.27 in Rain , Thunderstorm Heavy Thunderstorms and Rain
4:56 AM 63.0 °F 61.0 °F 93% 29.62 in 3.0 mi SSE 12.7 mph 20.7 mph 0.02 in Rain , Thunderstorm Thunderstorms and Rain
5:04 AM 63.0 °F 61.0 °F 93% 29.62 in 3.0 mi South 11.5 mph 20.7 mph 0.09 in Rain , Thunderstorm Heavy Rain
5:15 AM 63.0 °F 61.0 °F 93% 29.68 in 2.5 mi West 10.4 mph - 0.18 in Rain Rain
5:23 AM 63.0 °F 61.0 °F 93% 29.66 in 0.8 mi Variable 4.6 mph 17.3 mph 0.44 in Rain , Thunderstorm Heavy Rain
5:30 AM 63.0 °F 61.0 °F 93% 29.65 in 1.8 mi SE 5.8 mph - 0.46 in Rain , Thunderstorm Light Rain
5:32 AM 63.0 °F 61.0 °F 93% 29.65 in 3.0 mi SSE 4.6 mph - 0.46 in Rain , Thunderstorm Light Rain
5:49 AM 62.6 °F 60.8 °F 94% 29.65 in 6.0 mi SSE 8.1 mph - 0.49 in Rain , Thunderstorm Thunderstorms and Rain
5:52 AM 63.0 °F 61.0 °F 93% 29.64 in 5.0 mi SSE 10.4 mph - 0.50 in Rain , Thunderstorm Thunderstorms and Rain
6:04 AM 63.0 °F 62.1 °F 97% 29.63 in 5.0 mi South 9.2 mph - 0.03 in Rain , Thunderstorm Rain
6:23 AM 63.0 °F 61.0 °F 93% 29.63 in 5.0 mi South 9.2 mph - 0.09 in Rain Rain
6:52 AM 63.0 °F 60.1 °F 90% 29.62 in 5.0 mi South 12.7 mph 21.9 mph 0.18 in Rain Rain
7:52 AM 62.1 °F 59.0 °F 90% 29.62 in 5.0 mi South 11.5 mph 20.7 mph 0.10 in Rain Rain
8:52 AM 62.1 °F 59.0 °F 90% 29.53 in 10.0 mi SSE 20.7 mph 31.1 mph 0.07 in   Overcast
9:21 AM 63.0 °F 59.0 °F 87% 29.60 in 10.0 mi WSW 13.8 mph 24.2 mph 0.00 in   Mostly Cloudy
9:52 AM 63.0 °F 59.0 °F 87% 29.61 in 10.0 mi SSW 12.7 mph - 0.00 in   Partly Cloudy
10:52 AM 64.0 °F 59.0 °F 84% 29.62 in 10.0 mi SSW 18.4 mph 25.3 mph N/A   Clear
11:32 AM 64.9 °F 59.0 °F 81% 29.64 in 10.0 mi SSW 15.0 mph 25.3 mph N/A   Overcast
11:52 AM 64.9 °F 59.0 °F 81% 29.64 in 10.0 mi SSW 20.7 mph 28.8 mph N/A   Overcast
12:15 PM 64.0 °F 60.1 °F 87% 29.64 in 2.0 mi SSW 16.1 mph 26.5 mph 0.01 in Rain Light Rain
12:24 PM 64.0 °F 61.0 °F 90% 29.65 in 8.0 mi SSW 21.9 mph 34.5 mph 0.01 in Rain Light Rain
12:52 PM 64.9 °F 61.0 °F 87% 29.64 in 10.0 mi South 19.6 mph 29.9 mph 0.01 in   Overcast
1:15 PM 64.0 °F 61.0 °F 90% 29.64 in 2.5 mi SW 11.5 mph 27.6 mph 0.04 in Rain Light Rain
1:22 PM 64.0 °F 61.0 °F 90% 29.64 in 8.0 mi SW 11.5 mph 20.7 mph 0.04 in Rain Light Rain
1:36 PM 64.9 °F 61.0 °F 87% 29.63 in 10.0 mi SSW 13.8 mph 21.9 mph 0.04 in   Overcast
1:50 PM 64.4 °F 60.8 °F 88% 29.63 in 10.0 mi SSW 16.1 mph 27.6 mph 0.04 in   Mostly Cloudy
1:52 PM 64.9 °F 61.0 °F 87% 29.62 in 10.0 mi SSW 18.4 mph 26.5 mph 0.04 in   Scattered Clouds
2:38 PM 66.0 °F 60.1 °F 81% 29.63 in 10.0 mi SW 15.0 mph - N/A   Mostly Cloudy
2:52 PM 66.0 °F 59.0 °F 78% 29.62 in 10.0 mi SW 17.3 mph 27.6 mph N/A   Mostly Cloudy
3:01 PM 66.0 °F 59.0 °F 78% 29.63 in 10.0 mi SSW 17.3 mph 25.3 mph N/A   Scattered Clouds
3:52 PM 70.0 °F 59.0 °F 68% 29.63 in 10.0 mi SSW 20.7 mph 28.8 mph N/A   Clear
4:01 PM 70.0 °F 57.0 °F 63% 29.63 in 10.0 mi SSW 21.9 mph 32.2 mph N/A   Mostly Cloudy
4:52 PM 69.1 °F 53.1 °F 57% 29.65 in 10.0 mi SSW 17.3 mph 29.9 mph N/A   Mostly Cloudy
4:56 PM 69.1 °F 53.1 °F 57% 29.65 in 10.0 mi SSW 19.6 mph 28.8 mph N/A   Scattered Clouds
5:52 PM 64.9 °F 51.1 °F 61% 29.67 in 10.0 mi SSW 12.7 mph - N/A   Scattered Clouds
6:52 PM 61.0 °F 50.0 °F 67% 29.70 in 10.0 mi SSW 9.2 mph - N/A   Clear
7:52 PM 57.0 °F 46.0 °F 67% 29.74 in 10.0 mi SSW 9.2 mph - N/A   Clear
8:52 PM 55.9 °F 44.1 °F 64% 29.76 in 10.0 mi WSW 5.8 mph - N/A   Clear
9:52 PM 53.1 °F 43.0 °F 69% 29.80 in 10.0 mi WSW 8.1 mph - N/A   Clear
10:52 PM 51.1 °F 42.1 °F 71% 29.81 in 10.0 mi South 4.6 mph - N/A   Clear
11:52 PM 53.1 °F 41.0 °F 64% 29.80 in 10.0 mi SW 9.2 mph - N/A   Clear